Regional Weather Roundup
Issued by NWS Jackson, KY

Home | Current Version | Previous Version | Graphics & Text | Print | Product List | Glossary On
Versions: 1 2 3 4 5 6 7 8 9 10 11 12 13 14 15 16 17 18 19 20 21 22 23 24 25 26 27 28 29 30 31 32 33 34 35 36 37 38 39 40 41 42 43 44 45 46 47 48 49 50
000
ASUS43 KJKL 261510
RWRJKL

EAST KENTUCKY HOURLY WEATHER ROUNDUP
NATIONAL WEATHER SERVICE JACKSON KY
1100 AM EDT FRI MAY 26 2017

NOTE: "FAIR" INDICATES FEW OR NO CLOUDS BELOW 12,000 FEET WITH
NO SIGNIFICANT WEATHER AND/OR OBSTRUCTIONS TO VISIBILITY.

* THESE REPORTS ARE NOT UNDER NWS QUALITY CONTROL AND MAY NOT
  REPORT WEATHER SUCH AS PRECIPITATION AND FOG.

KYZ079-080-083-085-087-088-110-112-115-119-120-261600
...EASTERN KENTUCKY...

CITY           SKY/WX    TMP DP  RH WIND       PRES   REMARKS
JACKSON        SUNNY     68  58  70 CALM      29.99S
LONDON         SUNNY     69  53  56 W12       30.01S
SOMERSET*      SUNNY     68  54  60 W10       30.02S
MONTICELLO*    SUNNY     72  56  57 W17G25    30.02S
WILLIAMSBURG*  SUNNY     68  55  64 W9        30.02S
MIDDLESBORO*   SUNNY     71  53  51 W7        30.02S
HARLAN APT*    SUNNY     68  54  60 S3        30.02F
PIKE CO APT*     N/A     67  56  69 W3        29.99S
BIG SANDY APT* SUNNY     68  56  66 SW8       29.98S
MOREHEAD APT*  SUNNY     70  55  60 SW9       29.98S
ASHLAND*       MOSUNNY   70  61  73 NW6       29.93S
$$

KYZ035-036-041-042-044-050-067-078-099-261600
...CENTRAL KENTUCKY...

CITY           SKY/WX    TMP DP  RH WIND       PRES   REMARKS
MT STERLING*   SUNNY     70  55  60 NW7       29.99S
FLEMING/MASON* SUNNY     70  58  67 W12G17    29.97R
DANVILLE*      SUNNY     70  55  60 W10       30.00R
LEXINGTON      SUNNY     70  56  61 SW10      29.98R
FRANKFORT      SUNNY     71  56  58 SW9       29.95S
LOUISVILLE     CLOUDY    72  58  61 W12       29.95S
LEBANON*         N/A     70  57  64 S8        29.98S
GLASGOW*       SUNNY     72  58  61 SW8       29.99R
BOWLING GREEN  CLOUDY    73  59  61 S9        29.98R
$$

KYZ091>093-OHZ055-061-077-WVZ005-015-034-035-042-261600
...SOUTHERN OHIO/WEST VIRGINIA...

CITY           SKY/WX    TMP DP  RH WIND       PRES   REMARKS
COVINGTON      PTSUNNY   68  58  70 SW6       29.93F
COLUMBUS       PTSUNNY   68  56  65 W13       29.88R
DAYTON         MOSUNNY   67  54  63 W10       29.91F
WILMINGTON     MOSUNNY   67  58  72 W12       29.91S
HUNTINGTON     MOSUNNY   69  58  67 W8G16     29.94S
CHARLESTON     MOSUNNY   67  54  63 W14G21    29.94R
PINEVILLE*     PTSUNNY   66  57  71 MISG      30.03S
BECKLEY        PTSUNNY   62  51  67 NW14G23   29.98R
BLUEFIELD      PTSUNNY   58  50  75 W12G22    30.00S
LOGAN CO APT*  PTSUNNY   66  57  72 W9        29.97S
$$

VAZ002-007-008-TNZ017-027-036-066-071-261600
...SOUTHWEST VIRGINIA/EAST TENNESSEE...

CITY           SKY/WX    TMP DP  RH WIND       PRES   REMARKS
WISE*          MOSUNNY   64  50  59 CALM      30.05S
JONESVILLE*      N/A     68  55  64 SW7       30.04F
ABINGDON*      MOSUNNY   66  56  69 W10       30.03S
BRISTOL        MOSUNNY   68  55  63 SW5       30.03S
MORRISTOWN*    SUNNY     68  54  60 W9G15     30.03S
SEVIERVILLE*   SUNNY     72  52  49 W8        30.03R
KNOXVILLE      MOSUNNY   69  54  58 SW6       30.03R
LAFOLLETTE*    MOSUNNY   70  52  52 SW6       30.05S
OAK RIDGE      SUNNY     69  53  56 VRB3      30.04S
CROSSVILLE     SUNNY     68  54  60 W10       30.05S
NASHVILLE      CLOUDY    73  56  54 VRB7      29.99R
$$

...KEY TO REMARKS...
VSB - VISIBILITY IN MILES
WCI - WIND CHILL INDEX
HX  - HEAT INDEX

$$



USA.gov is the U.S. government's official web portal to all federal, state and local government web resources and services.